Flag for United Kingdom Weather past 2 weeks in Loughton, England, United Kingdom

Now
45 °F

Cool.


Feels Like: 40 °F
Forecast: 42 / 53 °F
Wind: 10 mph from Southwest

Location: Gravesend-Broadness

Current Time: Dec 21, 2014 at 6:22:48 AM

Latest Report: Dec 21, 2014 at 5:00 AM


Visibility: N/A

Pressure: 30.40 "Hg

Humidity: 84%

Dew point: 41 °F

Location of LoughtonLocation

Historic Weather in Loughton — Graph

°F

Loughton temperature yesterday

Maximum temperature yesterday: 49 °F (at 1:00 PM)
Minimum temperature yesterday: 42 °F (at 4:00 AM)
Average temperature yesterday: 46 °F

Past Weeks' High & Low Weather Summary

 TemperatureHumidityPressure
High57 °F (Dec 18, 11:00 AM)98% (Dec 16, 1:00 AM)30.45 "Hg (Dec 16, 1:00 AM)
Low29 °F (Dec 13, 8:00 PM)56% (Dec 19, 1:00 PM)29.26 "Hg (Dec 12, 5:00 AM)
Average45 °F83%29.96 "Hg
* Reported Dec 6 5:00 AM — Dec 21 5:00 AM, Loughton, Weather by CustomWeather, © 2014

Note: Actual official high and low records may vary slightly from our data, if they occured in-between our weather recording intervals... More about our weather records

Advertising

Loughton weather history for previous 24 hours

 ConditionsComfort  
Time TempWeatherWind HumidityBarometerVisibility
5:00 AM
Dec 21
45 °FCool.10 mph84%30.40 "HgN/A
4:00 AM44 °FQuite cool.9 mph87%30.41 "HgN/A
3:00 AM42 °FQuite cool.9 mph86%30.43 "HgN/A
2:00 AM42 °FQuite cool.8 mph86%30.44 "HgN/A
1:00 AM42 °FQuite cool.9 mph87%30.45 "HgN/A
12:00 AM42 °FQuite cool.8 mph85%30.44 "HgN/A
11:00 PM
Dec 20
43 °FQuite cool.9 mph84%30.44 "HgN/A
10:00 PM44 °FQuite cool.7 mph82%30.43 "HgN/A
8:00 PM45 °FCool.14 mph79%30.41 "HgN/A
7:00 PM46 °FCool.13 mph78%30.40 "HgN/A
6:00 PM46 °FCool.10 mph76%30.37 "HgN/A
5:00 PM47 °FCool.13 mph73%30.35 "HgN/A
4:00 PM49 °FCool.15 mph67%30.33 "HgN/A
3:00 PM49 °FCool.15 mph67%30.31 "HgN/A
2:00 PM49 °FCool.14 mph66%30.29 "HgN/A
1:00 PM49 °FCool.15 mph66%30.27 "HgN/A
12:00 PM49 °FCool.22 mph68%30.26 "HgN/A
11:00 AM48 °FCool.18 mph71%30.27 "HgN/A
10:00 AM47 °FCool.18 mph74%30.25 "HgN/A
9:00 AM46 °FCool.16 mph77%30.25 "HgN/A
8:00 AM45 °FCool.18 mph77%30.23 "HgN/A
7:00 AM45 °FQuite cool.15 mph75%30.22 "HgN/A
6:00 AM45 °FCool.17 mph73%30.22 "HgN/A
Weather by CustomWeather, © 2014

See weather overviewHow to use our weather pages